Voltar ao catálogo

STARLINK-37871

AtivoComunicaçõesSSO
NORAD 69549·PAYLOAD·🇺🇸 United States

Lançado Jun 15, 2026 de Vandenberg Space Force Base

Loading…

Próximas Passagens (próximas 24 horas)

TLE

AtualizadoSource: CelesTrak SupGP

Época: Sep 14, 2026, 21:04 UTC

1 69549C 26135D   26257.87826389  .00023636  00000+0  73397-3 0  2571
2 69549  97.2838 285.5951 0001057 101.9298 323.0811 15.33416265    15

Acompanhe STARLINK-37871 em tempo real com AllMySat

Download on the App Store